Temperature
17 17 17 17 17 16 16 16 16 14 13 13 13 13 13 13 13 13 13 13 13 13 13 13 13 13 13 13 12 12 12 12 12 12 12 12 12 11
17 17 17 16 16 16 16 16 15 15 14 13 13 13 13 13 13 13 13 13 13 13 13 13 13 13 12 12 12 12 12 12 12 12 12 11 11 11
17 16 16 16 16 16 16 15 15 15 15 13 13 13 13 13 13 13 12 12 12 12 12 12 12 12 12 12 12 12 11 11 11 11 11 11 11 11
16 16 16 16 16 16 15 15 15 15 15 14 13 13 12 12 12 12 12 12 12 12 12 12 12 12 12 11 11 11 11 11 11 11 11 10 10 10
16 16 16 16 16 15 15 15 15 14 14 14 13 13 12 12 12 12 12 12 12 12 12 11 11 11 11 11 11 11 11 10 10 10 10 10 10 10
16 16 16 15 15 15 15 15 15 14 14 13 13 13 12 12 12 12 12 12 11 11 11 11 11 11 11 11 10 10 10 10 10 10 9 9 9 9
16 15 15 15 15 15 15 15 14 14 14 13 13 12 12 12 12 12 11 11 11 11 11 11 11 11 11 10 10 10 10 10 10 9 9 9 9 9
16 15 15 15 15 15 14 14 14 14 14 13 13 13 12 12 12 12 11 11 11 11 11 11 11 11 10 10 10 10 10 9 9 9 9 9 8 8
15 15 15 15 15 14 14 14 14 13 13 13 13 13 13 12 12 12 11 11 11 11 10 10 10 10 10 10 10 10 9 9 9 9 9 8 8 8
15 15 14 14 14 14 14 14 13 13 13 13 13 12 12 12 12 12 11 11 11 10 10 10 10 10 10 10 10 10 9 9 9 9 8 8 8 8
15 14 14 14 14 13 13 13 13 13 13 12 12 12 12 12 12 11 11 11 10 10 10 10 10 10 10 10 10 9 9 9 9 8 8 8 8 8
15 14 14 14 13 13 13 13 13 13 12 12 12 12 12 11 11 11 11 11 11 10 10 10 10 10 10 10 10 9 9 9 9 8 8 8 8 8
14 14 14 13 13 13 13 13 13 13 12 12 12 12 12 11 11 11 11 11 11 11 11 10 10 10 10 10 10 9 9 9 9 9 8 8 8 8
14 14 14 13 13 13 13 13 12 12 12 12 12 12 11 11 11 11 11 11 11 11 10 10 10 10 10 9 9 9 9 9 9 9 8 8 8 8
14 14 13 13 13 13 13 12 12 12 12 12 12 12 11 11 11 11 11 10 10 10 10 10 10 10 10 10 9 9 9 9 9 9 8 8 8 8
13 13 13 13 13 13 12 12 12 12 12 12 12 11 11 11 11 11 10 10 10 10 10 10 10 10 10 9 9 9 9 9 9 9 9 8 8 8
13 13 13 13 13 12 12 12 12 12 12 12 11 11 11 11 11 10 10 10 10 10 10 9 9 9 9 9 9 9 9 9 9 9 8 8 8 8
13 13 13 13 12 12 12 12 12 12 12 11 11 11 11 11 10 10 10 10 10 10 9 9 9 9 9 9 9 9 9 9 9 8 8 8 8 8
12 12 12 12 12 12 12 12 12 12 11 11 11 11 11 10 10 10 10 10 10 9 9 9 9 9 9 9 9 9 9 9 8 8 8 8 8 8
12 12 12 12 12 12 12 12 12 11 11 11 11 10 10 10 10 10 10 10 10 9 9 9 9 9 9 9 9 9 8 8 8 8 8 8 8 8
12 12 12 12 12 11 11 11 11 11 11 11 11 10 10 10 10 10 9 10 9 9 9 9 9 9 9 9 8 8 8 8 8 8 8 8 8 7
12 12 12 12 12 11 11 11 11 11 11 11 10 10 10 10 10 10 9 9 9 9 9 9 9 9 9 9 8 8 8 8 8 8 8 8 7 7
12 12 12 12 11 11 11 11 10 10 10 10 10 10 10 10 10 9 9 9 9 9 9 9 9 9 9 8 8 8 8 8 8 8 8 8 7 7
Wind_Speed
1 1 1 1 2 2 4 5 5 3 2 1 1 1 3 5 5 6 7 8 8 9 9 9 10 10 9 9 9 9 9 9 9 9 9 8 7 6
2 3 3 1 2 2 3 2 3 4 3 2 2 2 3 4 5 6 6 7 8 8 9 9 10 10 10 10 10 10 10 10 10 10 9 9 8 8
3 3 2 2 2 2 2 3 3 4 4 2 1 2 2 3 4 5 6 6 6 7 8 9 9 9 10 9 9 9 9 10 10 10 10 10 10 10
2 3 2 2 3 2 2 3 3 3 5 5 2 2 2 3 3 3 4 4 5 6 6 7 8 8 8 8 8 9 9 10 10 10 10 10 10 10
3 3 2 3 3 2 3 3 3 3 4 5 3 2 2 3 3 2 3 2 3 4 4 5 5 6 6 7 7 8 8 9 9 9 8 8 8 8
3 2 2 3 3 3 3 4 4 4 4 5 3 2 2 2 3 3 1 1 1 2 3 3 3 4 4 5 5 6 6 6 7 6 6 6 7 7
3 3 2 3 4 3 4 4 5 5 4 4 3 2 2 3 3 3 3 1 1 1 1 1 1 1 2 3 4 4 5 5 4 4 4 5 5 5
3 2 3 4 5 5 6 7 8 7 6 4 3 4 3 3 3 3 3 3 1 1 2 1 2 1 3 4 5 5 5 5 4 3 2 2 2 3
3 2 2 3 4 4 5 5 4 5 7 6 5 5 5 5 5 4 3 3 3 3 3 1 1 2 5 6 7 7 7 6 5 4 3 3 2 2
3 3 3 2 2 3 4 4 3 2 3 4 5 5 5 6 6 6 5 3 1 1 4 2 2 2 3 6 8 10 9 8 7 6 5 4 4 3
2 3 3 3 3 5 5 4 2 1 1 3 5 5 6 8 8 5 4 3 1 2 2 3 2 1 2 3 8 10 11 11 10 8 7 5 5 4
2 2 3 3 4 6 5 5 3 2 1 1 2 2 3 4 7 6 6 4 3 2 3 3 2 2 1 3 4 7 9 11 11 11 9 8 6 5
3 2 2 4 5 5 5 4 4 4 3 2 2 1 1 1 2 5 6 5 5 4 4 4 3 3 3 2 2 4 7 7 7 8 9 9 9 7
4 3 3 5 5 5 4 4 4 4 3 2 2 1 2 2 3 4 6 7 6 6 7 7 4 4 3 2 2 2 3 6 7 6 7 8 8 10
4 6 6 6 5 3 4 5 4 3 3 3 3 3 3 3 2 2 2 2 3 3 5 7 5 4 4 4 3 2 2 3 6 5 5 5 6 6
3 3 4 4 3 2 2 2 2 3 4 4 3 3 2 2 2 2 2 2 1 2 3 5 7 6 4 3 3 3 3 3 4 5 4 4 6 8
3 2 1 1 1 1 1 2 2 2 3 3 3 2 2 2 3 2 2 2 3 3 3 2 3 4 4 4 3 4 4 3 4 4 4 4 4 6
5 3 3 4 5 4 4 3 3 4 4 4 3 4 4 4 3 2 2 3 4 4 3 3 1 0 2 3 5 5 4 4 3 3 4 4 4 5
4 4 5 5 5 5 5 4 4 4 4 3 4 4 4 4 3 3 3 3 4 4 4 3 3 3 3 4 5 6 5 4 2 3 4 5 5 6
4 5 5 5 5 5 5 5 4 3 3 3 4 4 4 4 3 3 4 5 5 4 3 3 3 5 7 6 4 3 7 5 4 4 4 3 3 4
6 5 5 5 4 5 5 5 4 4 4 4 4 4 4 4 4 4 4 6 5 4 4 5 6 7 3 2 1 3 4 8 8 6 5 3 2 2
6 6 5 5 5 5 5 5 4 4 5 5 5 5 5 4 5 5 5 4 5 5 5 5 3 2 3 4 5 5 4 4 5 8 8 8 5 5
6 6 5 5 5 4 4 5 5 5 5 5 5 4 4 4 4 4 5 5 4 5 4 3 2 2 3 4 4 4 4 4 2 2 4 7 9 9
Wind_Direction
75 82 93 106 126 133 142 152 151 159 180 183 120 101 113 100 95 89 86 83 84 83 82 85 87 87 87 86 84 80 77 76 75 75 74 71 67 62
75 73 67 79 103 113 137 140 138 149 159 177 174 179 148 124 110 98 96 89 87 90 91 92 93 94 90 87 84 82 80 80 80 79 75 71 64 61
64 79 72 83 99 107 114 118 119 124 136 138 118 142 136 134 121 108 97 94 94 95 97 97 96 93 89 87 88 86 84 84 83 81 77 73 70 66
84 86 79 92 88 103 112 119 129 131 142 148 149 149 151 159 146 131 120 107 104 97 100 99 99 97 94 93 94 95 91 87 84 80 77 72 70 67
96 98 97 102 95 100 117 123 126 123 129 146 156 151 139 146 122 122 121 111 119 117 110 108 109 107 103 101 99 99 97 92 88 84 79 74 71 68
77 88 96 115 133 132 126 125 126 120 123 136 136 138 140 142 129 132 114 76 141 135 127 128 128 123 121 120 116 113 110 104 97 90 85 81 75 71
68 67 82 96 111 126 139 141 137 136 137 140 151 142 144 148 169 170 159 151 354 176 114 170 153 158 174 166 157 152 143 136 127 114 99 91 83 72
97 71 74 76 87 93 122 144 153 156 163 165 175 176 187 181 163 161 152 143 219 222 148 256 190 233 233 218 204 191 184 181 177 170 158 136 115 95
128 116 97 82 84 90 96 107 130 156 167 170 175 190 187 187 168 166 174 174 201 195 147 230 241 240 241 233 219 212 208 205 203 203 207 201 185 155
140 135 122 106 109 113 105 93 87 114 164 167 182 196 191 182 177 175 176 163 133 158 154 184 223 237 243 233 229 222 223 224 224 224 223 222 217 214
138 134 137 136 148 133 118 111 87 16 91 146 162 172 175 176 166 140 139 133 171 226 189 170 203 226 258 251 237 229 229 233 237 239 238 235 230 232
132 144 157 155 151 145 143 144 150 198 138 104 102 118 151 173 177 176 172 168 177 222 213 170 176 155 255 265 236 231 232 237 239 242 241 239 230 222
172 189 212 183 163 161 161 172 190 175 154 140 127 111 108 162 190 192 189 180 185 219 206 167 171 175 188 247 267 232 221 227 232 239 242 238 228 213
191 200 207 194 181 174 175 181 165 140 132 137 149 186 210 224 227 218 205 207 210 216 200 174 175 183 178 198 253 258 229 226 221 229 239 239 233 224
204 205 203 200 192 191 194 175 156 145 147 163 197 224 229 225 215 216 207 204 226 231 207 196 183 179 178 193 213 219 226 235 217 220 227 223 224 216
202 200 190 195 200 212 211 197 180 180 179 194 214 233 226 200 203 204 208 205 220 281 266 220 197 180 188 198 193 214 211 219 218 214 212 226 231 225
168 144 140 154 191 230 232 220 202 188 202 214 209 213 216 211 222 214 200 195 206 236 265 278 236 211 200 188 203 222 219 228 225 204 192 216 237 235
157 177 197 199 203 208 213 226 221 215 218 215 212 210 212 216 227 227 206 199 214 229 233 232 199 47 351 280 220 213 219 224 225 202 188 201 239 244
177 203 207 209 214 215 215 218 226 226 215 210 218 218 215 213 212 216 216 218 224 231 238 224 195 180 210 254 265 214 201 212 200 205 205 202 221 235
211 215 218 219 219 217 218 221 225 225 217 217 223 222 215 208 210 217 218 222 222 223 232 229 213 207 212 224 234 245 213 196 195 210 222 219 240 263
220 224 222 221 223 221 219 217 214 216 218 215 217 220 217 211 220 229 229 226 218 214 220 234 238 227 202 140 205 269 255 224 211 204 203 201 226 255
220 223 223 219 219 219 217 214 214 217 219 220 222 223 219 214 220 225 228 223 220 218 223 237 239 181 171 196 223 239 255 263 246 234 220 206 188 205
218 219 220 217 216 215 213 214 217 222 221 221 220 221 218 221 226 225 224 219 218 215 217 231 229 204 212 211 219 229 240 243 237 240 260 254 239 244
Height
1542 1541 1541 1541 1541 1542 1542 1542 1543 1543 1545 1546 1546 1546 1546 1546 1545 1545 1544 1543 1542 1541 1540 1540 1539 1538 1538 1538 1538 1538 1538 1537 1537 1537 1536 1537 1537 1537
1541 1541 1540 1540 1540 1540 1541 1541 1542 1542 1542 1544 1545 1545 1546 1546 1546 1545 1544 1544 1543 1543 1542 1541 1540 1539 1539 1539 1538 1538 1538 1537 1537 1536 1536 1536 1536 1536
1540 1540 1539 1539 1539 1539 1539 1540 1540 1541 1541 1542 1544 1545 1545 1545 1546 1546 1545 1545 1544 1544 1543 1543 1542 1541 1540 1539 1539 1538 1538 1537 1537 1536 1536 1536 1535 1535
1539 1539 1539 1538 1538 1538 1538 1538 1539 1540 1540 1540 1542 1543 1544 1545 1546 1546 1546 1546 1545 1545 1544 1544 1543 1542 1541 1540 1540 1539 1538 1538 1537 1537 1536 1536 1536 1535
1539 1538 1538 1538 1538 1537 1538 1538 1538 1539 1540 1540 1541 1542 1543 1545 1545 1546 1546 1546 1546 1545 1545 1544 1544 1543 1542 1541 1541 1540 1539 1539 1538 1537 1537 1537 1536 1535
1538 1538 1537 1537 1537 1537 1537 1537 1538 1539 1539 1539 1540 1541 1542 1543 1544 1545 1545 1545 1546 1546 1545 1545 1544 1544 1543 1542 1541 1541 1540 1540 1539 1538 1538 1537 1537 1536
1538 1537 1537 1537 1537 1537 1537 1537 1537 1538 1538 1539 1540 1540 1541 1542 1542 1543 1544 1544 1545 1545 1545 1545 1545 1544 1543 1543 1542 1541 1541 1540 1540 1539 1539 1538 1537 1536
1537 1537 1537 1536 1536 1536 1536 1537 1537 1537 1537 1538 1538 1539 1539 1540 1541 1542 1543 1543 1543 1545 1545 1545 1545 1544 1544 1543 1543 1542 1541 1541 1540 1540 1539 1539 1538 1537
1537 1537 1536 1536 1536 1536 1536 1536 1536 1537 1537 1537 1537 1538 1538 1539 1540 1541 1542 1542 1542 1543 1544 1544 1544 1544 1544 1543 1543 1542 1542 1541 1541 1540 1539 1539 1538 1537
1536 1536 1536 1536 1536 1536 1536 1535 1535 1535 1536 1536 1537 1537 1538 1538 1539 1540 1541 1541 1541 1542 1543 1543 1543 1542 1543 1542 1542 1542 1542 1541 1541 1540 1539 1539 1538 1537
1535 1535 1535 1535 1535 1535 1535 1534 1534 1534 1535 1535 1535 1536 1536 1537 1538 1538 1539 1539 1539 1540 1541 1541 1541 1541 1541 1541 1541 1541 1541 1540 1540 1539 1539 1538 1538 1537
1533 1534 1534 1534 1534 1534 1534 1533 1533 1533 1534 1534 1534 1534 1535 1535 1536 1537 1537 1538 1538 1538 1539 1539 1539 1539 1539 1539 1539 1539 1539 1539 1539 1538 1538 1537 1537 1536
1532 1532 1532 1532 1532 1532 1533 1532 1532 1533 1533 1533 1533 1533 1533 1534 1534 1535 1535 1536 1536 1536 1537 1537 1536 1536 1537 1537 1536 1537 1537 1537 1537 1536 1536 1536 1535 1535
1531 1531 1531 1531 1531 1531 1531 1531 1531 1531 1531 1531 1531 1531 1532 1532 1532 1533 1533 1533 1533 1534 1534 1534 1533 1534 1534 1533 1533 1534 1534 1534 1534 1534 1534 1533 1533 1532
1529 1529 1529 1529 1529 1529 1529 1529 1529 1529 1529 1529 1529 1529 1530 1530 1530 1530 1531 1531 1531 1531 1531 1531 1531 1530 1531 1530 1530 1530 1530 1530 1530 1530 1530 1530 1530 1529
1527 1527 1527 1527 1527 1527 1527 1527 1527 1527 1527 1527 1527 1527 1527 1527 1527 1527 1527 1527 1527 1527 1528 1528 1528 1528 1527 1527 1527 1527 1527 1527 1527 1527 1527 1527 1527 1526
1524 1524 1524 1524 1524 1524 1524 1524 1524 1524 1524 1524 1524 1524 1524 1524 1524 1524 1524 1524 1524 1524 1524 1524 1525 1525 1524 1524 1524 1523 1523 1523 1523 1523 1523 1523 1523 1523
1521 1520 1520 1520 1520 1520 1520 1521 1521 1521 1521 1521 1521 1521 1521 1521 1520 1521 1521 1520 1520 1520 1520 1521 1521 1521 1521 1521 1521 1520 1520 1519 1520 1519 1519 1519 1519 1519
1516 1516 1516 1516 1516 1516 1517 1517 1517 1517 1517 1517 1517 1517 1517 1517 1517 1517 1517 1517 1517 1517 1517 1517 1517 1517 1517 1516 1516 1516 1516 1516 1516 1516 1515 1515 1514 1514
1511 1511 1511 1512 1512 1512 1512 1513 1513 1513 1513 1513 1513 1513 1513 1513 1513 1513 1513 1513 1513 1513 1513 1513 1513 1513 1513 1513 1512 1512 1512 1512 1512 1511 1511 1511 1511 1511
1506 1507 1507 1507 1507 1508 1508 1508 1508 1508 1509 1509 1509 1509 1509 1509 1509 1509 1509 1509 1509 1508 1508 1508 1509 1509 1509 1509 1509 1508 1508 1508 1507 1507 1507 1507 1507 1506
1501 1502 1502 1503 1503 1503 1504 1503 1504 1504 1504 1504 1504 1504 1504 1504 1504 1504 1504 1504 1504 1504 1504 1504 1504 1504 1504 1504 1503 1503 1503 1504 1503 1503 1503 1503 1502 1501
1497 1497 1498 1498 1499 1499 1499 1499 1499 1499 1499 1499 1499 1499 1499 1499 1499 1499 1499 1499 1499 1500 1500 1499 1499 1499 1499 1499 1499 1499 1499 1499 1498 1498 1498 1498 1498 1498